Regional Weather Roundup
Issued by NWS Upton, NY

Current Version | Previous Version | Graphics & Text | Print | Product List | Glossary Off
Versions: 1 2 3 4 5 6 7 8 9 10 11 12 13 14 15 16 17 18 19 20 21 22 23 24 25 26 27 28 29 30 31 32 33 34 35 36 37 38 39 40 41 42 43 44 45 46 47 48 49 50

646
ASUS41 KOKX 011704
RWROKX

REGIONAL WEATHER ROUNDUP
NATIONAL WEATHER SERVICE NEW YORK NY
100 PM EDT SUN MAY 01 2016

NOTE: "FAIR" INDICATES FEW OR NO CLOUDS BELOW 12,000 FEET WITH NO
SIGNIFICANT WEATHER AND/OR OBSTRUCTIONS TO VISIBILITY.

NYZ071-072-176-178-NJZ106-104-011800-
NEW YORK CITY METRO AREA


CITY           SKY/WX    TMP DP  RH WIND       PRES   REMARKS
CENTRAL PARK   LGT RAIN  47  43  86 MISG      30.19F
LAGUARDIA APRT LGT RAIN  49  42  77 SE13      30.17F
KENNEDY INTL   LGT RAIN  48  44  86 SE8       30.20F
NEWARK/LIBERTY LGT RAIN  45  45 100 SE8       30.17F
BRNX BOT. GARD   N/A     46  43  87 E1        30.17F
TETERBORO      LGT RAIN  49  41  74 SE9       30.16F
$$

NYZ177-179-078>081-011800-
LONG ISLAND NEW YORK

CITY           SKY/WX    TMP DP  RH WIND       PRES   REMARKS
FARMINGDALE    LGT RAIN  48  42  80 S13       30.19F
ISLIP          LGT RAIN  48  45  89 SE9       30.19F
SHIRLEY        LGT RAIN  48  44  86 SE6       30.21F
RIVERHEAD        N/A     48  41  76 CALM      30.20F
WESTHAMPTON    LGT RAIN  47  43  86 VRB6      30.22F
EAST HAMPTON   LGT RAIN  47  38  73 SE6       30.22S
MONTAUK POINT    N/A     49  36  61 VRB3      30.24F
$$

NYZ052-065-067-011800-
HUDSON VALLEY

CITY           SKY/WX    TMP DP  RH WIND       PRES   REMARKS
WHITE PLAINS   LGT RAIN  47  44  90 SE10      30.16F
NEWBURGH       LGT RAIN  45  41  87 SE9       30.17F FOG
MONTGOMERY     LGT RAIN  45  41  86 SE5       30.16F FOG
POUGHKEEPSIE   CLOUDY    48  42  80 VRB3      30.17F HAZE
ALBANY         LGT RAIN  45  39  79 S17G24    30.17F
$$

NJZ001-105-106-008-010-013-015-019>022-104-011800-
NEW JERSEY

CITY           SKY/WX    TMP DP  RH WIND       PRES   REMARKS
NEWARK/LIBERTY LGT RAIN  45  45 100 SE8       30.17F
TETERBORO      LGT RAIN  49  41  74 SE9       30.16F
CALDWELL       CLOUDY    47  43  86 S8        30.17F
MORRISTOWN     LGT RAIN  48  46  93 SE7       30.17F
SOMERVILLE     LGT RAIN  49  46  90 SE3       30.14F FOG
SUSSEX         LGT RAIN  45  42  89 CALM      30.15F FOG
ANDOVER          N/A     45  43  93 VRB6      30.14F
TRENTON        LGT RAIN  50  46  86 SE8       30.14F
MILLVILLE      LGT RAIN  50  48  93 E8        30.12F FOG
ATLANTIC CITY  LGT RAIN  51  49  92 E12       30.13F
WRIGHTSTOWN    LGT RAIN  50  48  95 E7        30.12F
TOMS RIVER     CLOUDY    48  45  87 E7        30.16F
BELMAR         LGT RAIN  48  46  93 E12       30.17F
$$

PAZ047>061-062-071-011800-
EASTERN PENNSYLVANIA

CITY           SKY/WX    TMP DP  RH WIND       PRES   REMARKS
PHILADELPHIA   LGT RAIN  51  47  86 E10       30.13F
ALLENTOWN      LGT RAIN  48  43  82 E6        30.13F
SCRANTON       CLOUDY    46  40  79 VRB5      30.08F
$$

CTZ002-004>006-009-010-012-RIZ004-006-007-MAZ004-011-015-011800-
SOUTHERN NEW ENGLAND
 IN CT

CITY           SKY/WX    TMP DP  RH WIND       PRES   REMARKS
BRADLEY INTL   CLOUDY    50  29  44 S13       30.20S
HARTFORD       LGT RAIN  51  35  54 S7        30.22S
DANBURY        CLOUDY    47  41  80 SE7       30.19F
WTRBRY/OXFORD  LGT RAIN  46  37  71 S7        30.20F FOG
BRIDGEPORT     LGT RAIN  50  45  83 SE8       30.20F
MERIDEN        CLOUDY    50  35  56 SE7       30.21F
NEW HAVEN      CLOUDY    49  43  80 SE10      30.21F
CHESTER        CLOUDY    48  34  57 SE9       30.21F
GROTON         LGT RAIN  48  41  76 SE10      30.22F
WILLIMANTIC    CLOUDY    53  24  32 S7        30.22S

 IN RI

CITY           SKY/WX    TMP DP  RH WIND       PRES   REMARKS
PROVIDENCE     CLOUDY    50  32  50 S13       30.23F
BLOCK ISLAND   LGT RAIN  47  39  74 SE9       30.23F
WESTERLY       CLOUDY    50  36  58 SE9       30.23F

 IN MA

CITY           SKY/WX    TMP DP  RH WIND       PRES   REMARKS
BOSTON         LGT RAIN  52  30  43 S7        30.23F
WORCESTER      LGT RAIN  47  30  51 SE9       30.20F
WESTFIELD      LGT RAIN  48  38  68 VRB6      30.20S
PROVINCETOWN   CLOUDY    52  26  36 S10       30.26S
NANTUCKET      CLOUDY    51  31  46 SE13      30.25S
$$

ANZ330-335-338-340-345-350-353-355-011800-
COASTAL MARINE OBSERVATIONS


STATION/POSITION TIME  SKY/WX   TEMP    WIND        PRES    VSBY  WAVE
                                AIR SEA DIR/SP/G                  HT/PER
                 (UTC)          (F)     (DEG/KT/KT) (MB)    (MI)  (FT/S)
NY HARB ENTRANCE 1550            47 51  120/ 12/ 14 1022.6          4/ 7
20S FIRE ISLAND  1550            47 48  110/ 12/ 16 1022.4          4/ 8
GREAT SOUTH BAY  1600            48 57  140/  8/ 14   N/A
23 SSW MONTAUK P 1650            46 48  130/ 10/ 12 1022.8          4/ 9
15 E BARNEGAT LI 1622               51                N/A           4/ 8
HUDSON CANYON    1550            50 48              1022.0          5/ 9
KINGS POINT      1600            47 53              1022.2
EXECUTION ROCKS  NOT AVBL
CENTRAL LI SOUND 1600            48     130/  8/ 10   N/A           1
EASTERN LI SOUND 1600            48 48  120/ 12/ 14   N/A
ROBBINS REEF     1600            47     140/ 18/ 20 1021.4
$$


>>>>>>>>>>>>>>>>>>>>>>>>>>>> KEY <<<<<<<<<<<<<<<<<<<<<<<<<<<
>                                                          <
>     SKY/WX - SKY CONDITION/PRESENT WEATHER               <
>     TMP    - TEMPERATURE IN FAHRENHEIT                   <
>     DP     - DEWPOINT IN FAHRENHEIT                      <
>     RH     - RELATIVE HUMIDITY IN PERCENT                <
>     WIND   - DIRECTION AND SPEED IN MPH                  <
>     PRES   - MEAN SEA LEVEL PRESSURE IN INCHES OF HG     <
>     WCI    - WIND CHILL INDEX                            <
>     VSB    - VISIBILITY IN MILES                         <
>     HX     - HEAT INDEX                                  <
>     TC     - TEMPERATURE IN CELSIUS                      <
>     VRB    - VARIABLE WIND DIRECTION                     <
>                                                          <
>>>>>>>>>>>>>>>>>>>>>>>>>>>> KEY <<<<<<<<<<<<<<<<<<<<<<<<<<<






USA.gov is the U.S. government's official web portal to all federal, state and local government web resources and services.